sat.trackr.live / text

‹ back to catalog

STARLINK-32227

NORAD 60361 · 2024-138G

PAYLOAD ACTIVE UNKNOWN

§ Identity

Operator
Country
US
Launch date
2024-08-04
Launch site
AFWTR
Launch vehicle
Mass (kg)
RCS (m²)

Purposes: comms

External: N2YO · Heavens-Above · Gunter

§ Orbital elements

Epoch: 2026-09-21T20:34:11.986752Z

Period
93.85 min
Inclination
53.1603°
Eccentricity
0.0001345
Mean motion
15.34386508 rev/d
Perigee alt
461.8 km
Apogee alt
463.7 km
Semi-major
6,840.9 km
B*
5.1317e-6
RAAN
117.5733°
Arg perigee
100.8548°
Mean anomaly
259.2606°
Rev number
12,068

§ Raw data

STARLINK-322271 60361U 24138G   26264.85708318 -.00000203  00000+0  51317-5 0  99912 60361  53.1603 117.5733 0001345 100.8548 259.2606 15.34386508120682

JSON: /api/v1/satellites/60361 · /tle

For live sub-satellite position, see the globe view (requires WebGL).

§ Visibility from observer

Set your observer location to see the next 7 days of passes ≥ 10°. The values pass through the URL so the page stays shareable.

No JS? Fill the form by hand. The geolocation button needs JavaScript.